Regional Weather Roundup
Issued by NWS Midland/Odessa, TX

Skip options and go directly to product.
Home | Oldest Version | Previous Version | Current Version | All | Text Only | Save Text | Print | Product List | Glossary On

Skip product version selection by date and time.   
194
ASUS44 KMAF 020810
RWRMAF
MIDLAND AREA WEATHER ROUNDUP
NATIONAL WEATHER SERVICE MIDLAND TX
300 AM CDT TUE SEP 02 2014

...IN SOUTHWEST TEXAS AND SOUTHEAST NEW MEXICO...

CITY           SKY/WX    TMP DP  RH WIND       PRES   REMARKS
ALPINE         CLEAR     74  58  56 SW5       30.09S
ANDREWS        FAIR      81  59  47 S13       29.93S
ARTESIA        NOT AVBL
BIG SPRING     CLEAR     82  58  45 SE15      29.93S
CARLSBAD       CLEAR     80  46  30 S7        29.89S
DRYDEN           N/A     88  57  34 E14       29.88F
FORT STOCKTON  CLEAR     80  60  50 S15       29.92S
GUAD PASS      CLEAR     77  37  23 SW8       30.10S
HOBBS          CLEAR     79  59  50 S15G23    29.95S
MARFA          CLEAR     64  54  68 CALM      30.10S
MIDLAND AIRPK  NOT AVBL
MIDLAND INTL   CLEAR     83  60  45 S14       29.91S
ODESSA         CLEAR     83  59  44 S16       29.92F
PECOS          CLEAR     79  58  48 SE6       29.86S
PRESIDIO       FAIR      86  59  39 N7        29.90R
SEMINOLE       CLEAR     80  58  47 S10       29.94F
SNYDER         CLEAR     81  61  50 S9        29.92S
WINK           CLEAR     83  61  47 SE15      29.88F
$$
...OTHER STATIONS IN TEXAS...

CITY           SKY/WX    TMP DP  RH WIND       PRES   REMARKS
ABILENE        CLEAR     82  65  56 S16       29.89S
AMARILLO       CLEAR     77  59  53 S12       29.91S
AUSTIN         MOCLDY    78  74  87 S3        29.94R
BROWNSVILLE    CLEAR     81  78  91 E7        29.86F
CORPUS CHRISTI PTCLDY    81  77  88 SE7       29.88F
DALLAS FTW     CLEAR     83  70  64 S15       29.86F
DEL RIO        CLEAR     85  71  63 SE10      29.86F
EL PASO        PTCLDY    81  38  21 S6        29.97S
HOUSTON INT    PTCLDY    79  77  94 S3        29.93S
LUBBOCK        CLEAR     80  61  52 S15       29.93R
SAN ANGELO     CLEAR     81  66  60 S14       29.91S
SAN ANTONIO    MOCLDY    81  74  79 SE12      29.94S
WACO           CLEAR     81  71  71 S17       29.92S
WICHITA FALLS  NOT AVBL
$$
...OTHER LOCATIONS IN NEW MEXICO...

CITY           SKY/WX    TMP DP  RH WIND       PRES   REMARKS
ALAMAGORDO     CLEAR     73  34  23 E3        29.99S
ALBUQUERQUE    CLEAR     72  41  32 CALM      30.08S
CANNON AFB     CLEAR     79  41  25 W9        29.95F
CLOVIS           N/A     68  45  42 CALM      29.98S
HOLLOMAN AFB   CLEAR     74  37  25 SE7       29.96F
ROSWELL        CLEAR     76  39  26 NW8       29.90S
RUIDOSO        CLEAR     64  34  32 W6        30.20F
SANTA FE       CLEAR     63  30  28 N12       30.13F
TRUTH OR CONSE CLEAR     70  38  31 NW6       30.02F
TUCUMCARI      CLEAR     72  39  30 W8        29.91F
$$

USA.gov is the U.S. government's official web portal to all federal, state and local government web resources and services.